Location: Unspecified
(47.5840°N, 122.3000°W)
Time: 07:26:02
(UTC+00:00)

YAOGAN 6 - Pass Details

Date: 04 August 2024
Orbit: 394 x 414 km, 97.2° (Epoch: 20 September)

Event Time Altitude Azimuth Distance (km) Brightness Sun altitude
Rises 12:12:21 0° 9° (N) 2,410 6.8 -6.5°
Reaches altitude 10° 12:14:22 10° 6° (N) 1,544 5.7 -6.2°
Maximum altitude 12:17:38 61° 285° (WNW) 500 2.4 -5.8°
Drops below altitude 10° 12:20:54 10° 205° (SSW) 1,544 4.6 -5.3°
Enters shadow 12:22:33 - 202° (SSW) 2,249 5.4 -5.1°
